Challenge Peak — 9V9589 — position and weather

sailwx.info

Track history (hours):
 
Tides and Currents Weather Stations Pressure Air Temp Water Temp Dewpoint Dewpoint Depression Visibility Wind Speed Wind Dir Waves Ship Positions

Challenge Peak

Last reported at 2014-Sep-16 08:31 UTC. Time now 2014-Sep-16 09:27 UTC.
Position N 01°13' E 103°48'.

Length 182 m; draft 7.6 m.

Type: Tanker. MMSI: 566433000.

Date/timePositionNaut miles runAvg speedWind from/ knotsBaromVisibWave heightAir tempDewpointWater temp
2014-Sep-16 08:31N 01°13' E 103°48'0 0.0
2014-Sep-16 07:28N 01°13' E 103°48'0 0.1
2014-Sep-16 06:28N 01°13' E 103°48'0 0.0
2014-Sep-16 05:28N 01°13' E 103°48'0 0.0
2014-Sep-16 04:28N 01°13' E 103°48'0 0.0
2014-Sep-16 03:31N 01°13' E 103°48'0 0.0
2014-Sep-16 02:28N 01°13' E 103°48'0 0.0
2014-Sep-16 01:31N 01°13' E 103°48'0 0.1
2014-Sep-16 00:25N 01°13' E 103°48'0 0.0
2014-Sep-15 23:16N 01°13' E 103°48'0 0.0
2014-Sep-15 22:28N 01°13' E 103°48'0 0.1
2014-Sep-15 21:31N 01°13' E 103°48'0 0.0
2014-Sep-15 20:31N 01°13' E 103°48'0 0.1
2014-Sep-15 19:31N 01°13' E 103°48'0 0.0
2014-Sep-15 18:31N 01°13' E 103°48'0 0.0
2014-Sep-15 17:31N 01°13' E 103°48'0 0.1
2014-Sep-15 16:25N 01°13' E 103°48'0 0.1
2014-Sep-15 15:31N 01°13' E 103°48'0 0.0
2014-Sep-15 14:31N 01°13' E 103°48'0 0.0
2014-Sep-15 13:31N 01°13' E 103°48'0 0.0
2014-Sep-15 12:31N 01°13' E 103°48'0 0.0
2014-Sep-15 11:31N 01°13' E 103°48'0 0.0
2014-Sep-15 10:31N 01°13' E 103°48'0 0.1
2014-Sep-15 09:31N 01°13' E 103°48'0 0.0
2014-Sep-15 08:31N 01°13' E 103°48'0 0.1
2014-Sep-15 07:31N 01°13' E 103°48'0 0.0
2014-Sep-15 06:31N 01°13' E 103°48'0 0.0
2014-Sep-15 05:28N 01°13' E 103°48'0 0.1
2014-Sep-15 04:16N 01°13' E 103°48'0 0.1
2014-Sep-15 03:28N 01°13' E 103°48'0 0.0
2014-Sep-15 02:31N 01°13' E 103°48'0 0.1
2014-Sep-15 01:31N 01°13' E 103°48'0 0.0
2014-Sep-15 00:28N 01°13' E 103°48'0 0.0
2014-Sep-14 23:16N 01°13' E 103°48'0 0.1
2014-Sep-14 22:31N 01°13' E 103°48'0 0.1
2014-Sep-14 21:31N 01°13' E 103°48'0 0.1
2014-Sep-14 20:31N 01°13' E 103°48'0 0.0
2014-Sep-14 19:31N 01°13' E 103°48'0 0.0
2014-Sep-14 18:31N 01°13' E 103°48'0 0.0
2014-Sep-14 17:31N 01°13' E 103°48'0 0.0
2014-Sep-14 16:31N 01°13' E 103°48'0 0.1
2014-Sep-14 15:31N 01°13' E 103°48'0 0.0
2014-Sep-14 14:31N 01°13' E 103°48'0 0.0
2014-Sep-14 13:31N 01°13' E 103°48'0 0.0
2014-Sep-14 12:28N 01°13' E 103°48'0 0.0
2014-Sep-14 11:31N 01°13' E 103°48'0 0.0
2014-Sep-14 10:31N 01°13' E 103°48'0 0.0
2014-Sep-14 09:31N 01°13' E 103°48'3 3.1
2014-Sep-14 08:33N 01°13' E 103°51'10 9.8
2014-Sep-14 07:33N 01°16' E 104°01'8 8.1
2014-Sep-14 06:33N 01°17' E 104°09'11 0.2
2014-Sep-12 08:34N 01°14' E 103°58'10 9.5
2014-Sep-12 07:30N 01°13' E 103°48'1 1.3
2014-Sep-12 06:30N 01°14' E 103°49'0 0.0
2014-Sep-12 05:31N 01°14' E 103°49'0 0.1
2014-Sep-12 04:33N 01°14' E 103°49'0 0.1
2014-Sep-12 03:18N 01°14' E 103°49'0 0.0
2014-Sep-12 01:12N 01°14' E 103°49'0 0.2
2014-Sep-12 00:31N 01°14' E 103°49'0 0.1
2014-Sep-11 23:24N 01°14' E 103°49'0 0.1
2014-Sep-11 22:30N 01°14' E 103°49'0 0.0
2014-Sep-11 21:30N 01°14' E 103°49'0 0.0
2014-Sep-11 20:30N 01°14' E 103°49'0 0.1
2014-Sep-11 19:27N 01°14' E 103°49'0 0.1
2014-Sep-11 18:30N 01°14' E 103°49'0 0.1
2014-Sep-11 17:34N 01°14' E 103°49'0 0.1
2014-Sep-11 16:31N 01°14' E 103°49'0 0.0
2014-Sep-11 15:30N 01°14' E 103°49'0 0.1
2014-Sep-11 14:30N 01°14' E 103°49'0 0.0
2014-Sep-11 13:33N 01°14' E 103°49'0 0.1
2014-Sep-11 12:33N 01°14' E 103°49'0 0.2
2014-Sep-11 11:34N 01°14' E 103°49'0 0.0
2014-Sep-11 10:34N 01°14' E 103°49'0 0.0
2014-Sep-11 09:15N 01°14' E 103°49'0 0.1
2014-Sep-11 07:21N 01°14' E 103°49'0 0.1
2014-Sep-11 05:34N 01°14' E 103°49'0 0.0
2014-Sep-11 04:33N 01°14' E 103°49'0 0.0
2014-Sep-11 03:33N 01°14' E 103°49'1 0.6
2014-Sep-11 02:31N 01°14' E 103°48'6 5.9
2014-Sep-11 01:33N 01°18' E 103°44'0 0.1
2014-Sep-11 00:32N 01°17' E 103°44'0 0.0
2014-Sep-09 05:25N 01°17' E 103°44'1 1.2
2014-Sep-09 04:33N 01°17' E 103°45'4 3.8
2014-Sep-09 03:33N 01°14' E 103°42'4 3.5
2014-Sep-09 02:29N 01°18' E 103°42'0 0.0
2014-Sep-07 21:31N 01°17' E 103°42'4 4.2
2014-Sep-07 20:32N 01°13' E 103°41'1 0.1
2014-Sep-06 15:32N 01°15' E 103°42'4 4.6
2014-Sep-06 14:33N 01°16' E 103°46'4 0.8
2014-Sep-06 09:23N 01°13' E 103°49'0 0.1
2014-Sep-06 08:33N 01°13' E 103°49'  
Track history (hours):
 
Tides and Currents Weather Stations Pressure Air Temp Water Temp Dewpoint Dewpoint Depression Visibility Wind Speed Wind Dir Waves Ship Positions

Challenge Peak

Last reported at 2014-Sep-16 08:31 UTC. Time now 2014-Sep-16 09:27 UTC.
Position N 01°13' E 103°48'.

Length 182 m; draft 7.6 m.

Type: Tanker. MMSI: 566433000.

Date/timePositionNaut miles runAvg speedWind from/ knotsBaromVisibWave heightAir tempDewpointWater temp
2014-Sep-16 08:31N 01°13' E 103°48'0 0.0
2014-Sep-16 07:28N 01°13' E 103°48'0 0.1
2014-Sep-16 06:28N 01°13' E 103°48'0 0.0
2014-Sep-16 05:28N 01°13' E 103°48'0 0.0
2014-Sep-16 04:28N 01°13' E 103°48'0 0.0
2014-Sep-16 03:31N 01°13' E 103°48'0 0.0
2014-Sep-16 02:28N 01°13' E 103°48'0 0.0
2014-Sep-16 01:31N 01°13' E 103°48'0 0.1
2014-Sep-16 00:25N 01°13' E 103°48'0 0.0
2014-Sep-15 23:16N 01°13' E 103°48'0 0.0
2014-Sep-15 22:28N 01°13' E 103°48'0 0.1
2014-Sep-15 21:31N 01°13' E 103°48'0 0.0
2014-Sep-15 20:31N 01°13' E 103°48'0 0.1
2014-Sep-15 19:31N 01°13' E 103°48'0 0.0
2014-Sep-15 18:31N 01°13' E 103°48'0 0.0
2014-Sep-15 17:31N 01°13' E 103°48'0 0.1
2014-Sep-15 16:25N 01°13' E 103°48'0 0.1
2014-Sep-15 15:31N 01°13' E 103°48'0 0.0
2014-Sep-15 14:31N 01°13' E 103°48'0 0.0
2014-Sep-15 13:31N 01°13' E 103°48'0 0.0
2014-Sep-15 12:31N 01°13' E 103°48'0 0.0
2014-Sep-15 11:31N 01°13' E 103°48'0 0.0
2014-Sep-15 10:31N 01°13' E 103°48'0 0.1
2014-Sep-15 09:31N 01°13' E 103°48'0 0.0
2014-Sep-15 08:31N 01°13' E 103°48'0 0.1
2014-Sep-15 07:31N 01°13' E 103°48'0 0.0
2014-Sep-15 06:31N 01°13' E 103°48'0 0.0
2014-Sep-15 05:28N 01°13' E 103°48'0 0.1
2014-Sep-15 04:16N 01°13' E 103°48'0 0.1
2014-Sep-15 03:28N 01°13' E 103°48'0 0.0
2014-Sep-15 02:31N 01°13' E 103°48'0 0.1
2014-Sep-15 01:31N 01°13' E 103°48'0 0.0
2014-Sep-15 00:28N 01°13' E 103°48'0 0.0
2014-Sep-14 23:16N 01°13' E 103°48'0 0.1
2014-Sep-14 22:31N 01°13' E 103°48'0 0.1
2014-Sep-14 21:31N 01°13' E 103°48'0 0.1
2014-Sep-14 20:31N 01°13' E 103°48'0 0.0
2014-Sep-14 19:31N 01°13' E 103°48'0 0.0
2014-Sep-14 18:31N 01°13' E 103°48'0 0.0
2014-Sep-14 17:31N 01°13' E 103°48'0 0.0
2014-Sep-14 16:31N 01°13' E 103°48'0 0.1
2014-Sep-14 15:31N 01°13' E 103°48'0 0.0
2014-Sep-14 14:31N 01°13' E 103°48'0 0.0
2014-Sep-14 13:31N 01°13' E 103°48'0 0.0
2014-Sep-14 12:28N 01°13' E 103°48'0 0.0
2014-Sep-14 11:31N 01°13' E 103°48'0 0.0
2014-Sep-14 10:31N 01°13' E 103°48'0 0.0
2014-Sep-14 09:31N 01°13' E 103°48'3 3.1
2014-Sep-14 08:33N 01°13' E 103°51'10 9.8
2014-Sep-14 07:33N 01°16' E 104°01'8 8.1
2014-Sep-14 06:33N 01°17' E 104°09'11 0.2
2014-Sep-12 08:34N 01°14' E 103°58'10 9.5
2014-Sep-12 07:30N 01°13' E 103°48'1 1.3
2014-Sep-12 06:30N 01°14' E 103°49'0 0.0
2014-Sep-12 05:31N 01°14' E 103°49'0 0.1
2014-Sep-12 04:33N 01°14' E 103°49'0 0.1
2014-Sep-12 03:18N 01°14' E 103°49'0 0.0
2014-Sep-12 01:12N 01°14' E 103°49'0 0.2
2014-Sep-12 00:31N 01°14' E 103°49'0 0.1
2014-Sep-11 23:24N 01°14' E 103°49'0 0.1
2014-Sep-11 22:30N 01°14' E 103°49'0 0.0
2014-Sep-11 21:30N 01°14' E 103°49'0 0.0
2014-Sep-11 20:30N 01°14' E 103°49'0 0.1
2014-Sep-11 19:27N 01°14' E 103°49'0 0.1
2014-Sep-11 18:30N 01°14' E 103°49'0 0.1
2014-Sep-11 17:34N 01°14' E 103°49'0 0.1
2014-Sep-11 16:31N 01°14' E 103°49'0 0.0
2014-Sep-11 15:30N 01°14' E 103°49'0 0.1
2014-Sep-11 14:30N 01°14' E 103°49'0 0.0
2014-Sep-11 13:33N 01°14' E 103°49'0 0.1
2014-Sep-11 12:33N 01°14' E 103°49'0 0.2
2014-Sep-11 11:34N 01°14' E 103°49'0 0.0
2014-Sep-11 10:34N 01°14' E 103°49'0 0.0
2014-Sep-11 09:15N 01°14' E 103°49'0 0.1
2014-Sep-11 07:21N 01°14' E 103°49'0 0.1
2014-Sep-11 05:34N 01°14' E 103°49'0 0.0
2014-Sep-11 04:33N 01°14' E 103°49'0 0.0
2014-Sep-11 03:33N 01°14' E 103°49'1 0.6
2014-Sep-11 02:31N 01°14' E 103°48'6 5.9
2014-Sep-11 01:33N 01°18' E 103°44'0 0.1
2014-Sep-11 00:32N 01°17' E 103°44'0 0.0
2014-Sep-09 05:25N 01°17' E 103°44'1 1.2
2014-Sep-09 04:33N 01°17' E 103°45'4 3.8
2014-Sep-09 03:33N 01°14' E 103°42'4 3.5
2014-Sep-09 02:29N 01°18' E 103°42'0 0.0
2014-Sep-07 21:31N 01°17' E 103°42'4 4.2
2014-Sep-07 20:32N 01°13' E 103°41'1 0.1
2014-Sep-06 15:32N 01°15' E 103°42'4 4.6
2014-Sep-06 14:33N 01°16' E 103°46'4 0.8
2014-Sep-06 09:23N 01°13' E 103°49'0 0.1
2014-Sep-06 08:33N 01°13' E 103°49'  

Dump ship's entire track history